{"data":{"norad_id":64209,"intl_designator":"2025-117G","name":"STARLINK-33944","alt_names":[],"object_type":"PAYLOAD","status":"ACTIVE","operator":null,"country":"US","launch_date":"2025-05-31","launch_site_code":"AFWTR","launch_vehicle":null,"mission":null,"orbit_class":"UNKNOWN","rcs_meters":null,"size_class":null,"mass_kg":null,"dimensions":null,"purposes":["comms"],"wikipedia_slug":null,"has_3d_model":false,"image_url":null,"decayed_at":null,"tle_current":{"epoch":"2026-09-19T10:31:02.111232Z","epoch_age_seconds":232153,"freshness":"STALE","line1":"1 64209U 25117G   26262.43821888  .00019991  00000+0  60070-3 0  9991","line2":"2 64209  53.1557 218.6615 0002230 116.0062 244.1170 15.34426885 74232","mean_motion":15.34426885,"eccentricity":0.000223,"inclination_deg":53.1557,"raan_deg":218.6615,"arg_perigee_deg":116.0062,"mean_anomaly_deg":244.117,"bstar":0.0006007,"rev_number":7423,"period_min":93.846113756016,"perigee_km":461.09784393372,"apogee_km":464.14882304245,"semimajor_km":6840.7603334881,"source":"CELESTRAK","updated_at":"2026-09-21T09:00:35.271176Z"}}}